DL1GHN-6 Weather Reports


time (UTC)temp
C
wind
direction
speed
KPH
gust
KPH
rain 1hr
cm
rain 24hr
cm
rain mn
cm
humidity
%
barometer
mb
20260831204012 18 181 3.2 6.4 0.00 0.33 0.33 73 1020.1
20260831203513 18 202 3.2 6.4 0.00 0.33 0.33 73 1020.1
20260831203011 18 166 1.6 8.0 0.00 0.33 0.33 73 1020.1
20260831202511 18 147 4.8 9.7 0.00 0.33 0.33 73 1020.1
20260831202012 18 198 1.6 4.8 0.00 0.33 0.33 73 1020.0
20260831201512 18 171 3.2 4.8 0.00 0.33 0.33 72 1020.0
20260831201011 18 176 3.2 6.4 0.00 0.33 0.33 72 1019.9
20260831200512 18 252 4.8 8.0 0.00 0.33 0.33 72 1019.9
20260831200012 18 191 6.4 8.0 0.00 0.33 0.33 72 1019.8
20260831195512 18 177 4.8 8.0 0.00 0.33 0.33 71 1019.7
20260831195012 18 186 4.8 8.0 0.00 0.33 0.33 71 1019.6
20260831194511 18 176 3.2 6.4 0.00 0.33 0.33 71 1019.6
20260831194013 18 190 4.8 8.0 0.00 0.33 0.33 71 1019.5
20260831193513 18 200 4.8 9.7 0.00 0.33 0.33 71 1019.4
20260831193012 18 199 4.8 8.0 0.00 0.33 0.33 71 1019.3
20260831192512 18 196 6.4 11.3 0.00 0.33 0.33 71 1019.3
20260831192013 18 172 6.4 9.7 0.00 0.33 0.33 71 1019.2
20260831191512 18 198 4.8 8.0 0.00 0.33 0.33 71 1019.2
20260831191013 18 203 4.8 11.3 0.00 0.33 0.33 71 1019.1
20260831190512 18 191 3.2 8.0 0.00 0.33 0.33 72 1019.2
20260831190011 18 171 4.8 6.4 0.00 0.33 0.33 72 1019.1
20260831185511 19 147 3.2 4.8 0.00 0.33 0.33 71 1019.1
20260831185012 19 175 1.6 4.8 0.00 0.33 0.33 71 1019.1
20260831184511 19 187 1.6 3.2 0.00 0.33 0.33 70 1019.0
20260831184011 19 161 3.2 3.2 0.00 0.33 0.33 70 1019.0
20260831183512 19 178 1.6 3.2 0.00 0.33 0.33 69 1018.9
20260831183011 20 165 1.6 3.2 0.00 0.33 0.33 68 1018.8
20260831182512 20 185 3.2 4.8 0.00 0.33 0.33 67 1018.8
20260831182011 20 187 1.6 4.8 0.00 0.33 0.33 66 1018.7
20260831181511 20 173 4.8 9.7 0.00 0.33 0.33 66 1018.7
20260831181013 20 189 6.4 9.7 0.00 0.33 0.33 65 1018.6
20260831180511 20 198 4.8 9.7 0.00 0.33 0.33 65 1018.7
20260831180013 20 188 4.8 8.0 0.00 0.33 0.33 65 1018.7
20260831175513 20 182 3.2 8.0 0.00 0.33 0.33 65 1018.7
20260831175013 20 188 3.2 6.4 0.00 0.33 0.33 65 1018.6
20260831174512 20 185 3.2 8.0 0.00 0.33 0.33 65 1018.6
20260831174011 20 209 4.8 11.3 0.00 0.33 0.33 65 1018.7
20260831173512 20 205 3.2 12.9 0.00 0.33 0.33 65 1018.6
20260831173012 20 161 4.8 11.3 0.00 0.33 0.33 66 1018.7
20260831172512 20 153 4.8 9.7 0.00 0.33 0.33 66 1018.6
20260831172011 20 237 4.8 11.3 0.00 0.33 0.33 66 1018.7
20260831171512 20 208 4.8 12.9 0.00 0.33 0.33 67 1018.7
20260831171011 20 204 4.8 12.9 0.00 0.33 0.33 67 1018.7
20260831170512 20 161 6.4 17.7 0.00 0.33 0.33 67 1018.7
20260831170012 20 185 6.4 17.7 0.00 0.33 0.33 68 1018.6
20260831165511 20 210 3.2 11.3 0.00 0.33 0.33 69 1018.7
20260831165011 20 156 6.4 11.3 0.00 0.33 0.33 70 1018.7
20260831164511 20 224 4.8 9.7 0.00 0.33 0.33 70 1018.7
20260831164013 20 171 6.4 11.3 0.00 0.33 0.33 70 1018.7
20260831163512 20 200 6.4 14.5 0.00 0.33 0.33 70 1018.5
20260831163013 20 150 11.3 19.3 0.00 0.33 0.33 68 1018.4
20260831162512 20 194 6.4 17.7 0.00 0.33 0.33 67 1018.5
20260831162013 21 355 14.5 29.0 0.00 0.33 0.33 66 1018.8
20260831161513 21 315 9.7 20.9 0.00 0.33 0.33 66 1018.7
20260831161011 22 271 17.7 25.7 0.00 0.33 0.33 62 1018.7
20260831160511 22 271 14.5 30.6 0.00 0.33 0.33 60 1018.3
20260831160011 23 278 9.7 32.2 0.00 0.33 0.33 55 1018.3
20260831155511 23 239 9.7 22.5 0.00 0.33 0.33 51 1018.2
20260831155011 23 319 17.7 40.2 0.00 0.33 0.33 49 1017.9
20260831154512 24 284 12.9 41.8 0.00 0.33 0.33 47 1017.7
20260831154013 24 242 14.5 30.6 0.00 0.33 0.33 46 1017.5
20260831153512 24 261 17.7 24.1 0.00 0.33 0.33 47 1017.3
20260831153012 24 286 14.5 27.4 0.00 0.33 0.33 46 1017.2
20260831152512 25 169 19.3 29.0 0.00 0.33 0.33 47 1017.0
20260831152012 25 235 12.9 19.3 0.00 0.33 0.33 48 1016.9
20260831151513 25 261 16.1 22.5 0.00 0.33 0.33 47 1017.0
20260831151011 26 229 12.9 27.4 0.00 0.33 0.33 47 1017.0
20260831150513 26 275 16.1 24.1 0.00 0.33 0.33 46 1017.0
20260831150012 26 254 11.3 20.9 0.00 0.33 0.33 49 1016.9
20260831145512 26 234 14.5 29.0 0.00 0.33 0.33 49 1016.8
20260831145011 26 226 11.3 33.8 0.00 0.33 0.33 49 1016.8
20260831144511 26 248 12.9 30.6 0.00 0.33 0.33 51 1017.0
20260831144012 26 231 12.9 24.1 0.00 0.33 0.33 53 1016.9
20260831143512 25 5 12.9 30.6 0.00 0.33 0.33 53 1016.9
20260831143012 25 239 8.0 22.5 0.00 0.33 0.33 56 1016.8
20260831142512 25 243 11.3 27.4 0.00 0.33 0.33 56 1016.8
20260831142012 25 170 16.1 25.7 0.00 0.33 0.33 56 1016.8
20260831141511 25 220 9.7 20.9 0.00 0.33 0.33 57 1016.8
20260831141013 24 182 9.7 22.5 0.03 0.33 0.33 58 1016.8
20260831140512 24 291 12.9 29.0 0.03 0.33 0.33 59 1016.9
20260831140012 23 273 4.8 12.9 0.03 0.33 0.33 64 1016.9
20260831135513 23 240 8.0 19.3 0.03 0.33 0.33 64 1017.0
20260831135012 22 252 4.8 17.7 0.03 0.33 0.33 67 1017.2
20260831134512 22 256 6.4 14.5 0.03 0.33 0.33 71 1017.1
20260831134011 22 342 8.0 14.5 0.03 0.33 0.33 69 1017.3
20260831133512 22 227 6.4 12.9 0.03 0.33 0.33 71 1017.5
20260831133011 22 261 6.4 16.1 0.03 0.33 0.33 74 1017.5
20260831132511 22 221 6.4 12.9 0.03 0.33 0.33 73 1017.6
20260831132011 22 279 11.3 17.7 0.03 0.33 0.33 70 1017.6
20260831131512 22 246 20.9 32.2 0.03 0.33 0.33 64 1017.9
20260831131011 23 224 16.1 27.4 0.00 0.30 0.30 57 1017.9
20260831130512 23 304 12.9 22.5 0.00 0.30 0.30 55 1017.7
20260831130012 23 235 4.8 16.1 0.00 0.30 0.30 58 1017.5
20260831125511 23 214 12.9 22.5 0.00 0.30 0.30 54 1017.5
20260831125012 23 263 16.1 29.0 0.00 0.30 0.30 54 1017.5
20260831124512 23 248 11.3 25.7 0.00 0.30 0.30 53 1017.3
20260831124012 23 309 16.1 25.7 0.00 0.30 0.30 52 1017.3
20260831123512 24 246 9.7 20.9 0.00 0.30 0.30 51 1017.3
20260831123012 24 241 16.1 24.1 0.00 0.30 0.30 51 1017.2
20260831122512 25 219 14.5 30.6 0.00 0.30 0.30 49 1017.2
20260831122013 25 288 12.9 29.0 0.00 0.30 0.30 47 1017.0
20260831121512 25 216 17.7 27.4 0.00 0.30 0.30 47 1017.0
20260831121012 26 301 11.3 24.1 0.00 0.30 0.30 46 1016.9
20260831120512 26 217 8.0 22.5 0.00 0.30 0.30 47 1016.9
20260831120011 26 236 9.7 25.7 0.00 0.30 0.30 46 1016.9
20260831115511 25 231 16.1 27.4 0.00 0.30 0.30 44 1017.0
20260831115011 25 217 12.9 24.1 0.00 0.30 0.30 46 1017.0
20260831114512 25 252 11.3 22.5 0.00 0.30 0.30 47 1017.1
20260831114012 25 219 14.5 24.1 0.00 0.30 0.30 46 1017.3
20260831113511 25 247 11.3 25.7 0.00 0.30 0.30 49 1017.4
20260831113011 25 273 14.5 24.1 0.00 0.30 0.30 48 1017.4
20260831112512 25 250 12.9 27.4 0.00 0.30 0.30 47 1017.4
20260831112011 25 257 11.3 22.5 0.00 0.30 0.30 49 1017.3
20260831111511 25 236 12.9 24.1 0.00 0.30 0.30 49 1017.4
20260831111011 25 187 16.1 29.0 0.00 0.30 0.30 49 1017.4
20260831110511 25 208 17.7 37.0 0.00 0.30 0.30 50 1017.4
20260831110012 25 236 16.1 33.8 0.00 0.30 0.30 50 1017.5
20260831105512 25 244 14.5 30.6 0.00 0.30 0.30 49 1017.4
20260831105011 25 257 12.9 27.4 0.00 0.30 0.30 51 1017.3
20260831104512 25 264 11.3 30.6 0.00 0.30 0.30 52 1017.3
20260831104013 25 277 12.9 27.4 0.00 0.30 0.30 51 1017.3
20260831103512 24 201 11.3 22.5 0.00 0.30 0.30 52 1017.1
20260831103012 24 172 14.5 22.5 0.00 0.30 0.30 52 1017.2
20260831102512 24 255 14.5 27.4 0.00 0.30 0.30 53 1017.3
20260831102012 23 222 11.3 29.0 0.00 0.30 0.30 53 1017.2
20260831101512 23 244 12.9 24.1 0.00 0.30 0.30 54 1017.2
20260831101011 23 281 9.7 24.1 0.00 0.30 0.30 55 1017.3
20260831100511 23 132 11.3 22.5 0.00 0.30 0.30 56 1017.3
20260831100011 23 176 8.0 25.7 0.00 0.30 0.30 58 1017.4
20260831095511 22 194 11.3 29.0 0.00 0.30 0.30 59 1017.4
20260831095012 23 167 11.3 24.1 0.00 0.30 0.30 59 1017.5
20260831094511 22 179 11.3 22.5 0.00 0.30 0.30 60 1017.6
20260831094012 22 237 17.7 25.7 0.00 0.30 0.30 62 1017.6
20260831093511 21 162 11.3 25.7 0.00 0.30 0.30 64 1017.6
20260831093011 21 148 19.3 27.4 0.00 0.30 0.30 64 1017.5
20260831092512 21 240 8.0 14.5 0.00 0.30 0.30 66 1017.6
20260831092012 22 171 3.2 16.1 0.00 0.30 0.30 65 1017.5
20260831091512 22 248 12.9 19.3 0.00 0.30 0.30 64 1017.5
20260831091013 22 227 11.3 22.5 0.00 0.30 0.30 64 1017.5
20260831090513 22 215 17.7 29.0 0.00 0.30 0.30 62 1017.6
20260831090012 21 238 11.3 25.7 0.00 0.30 0.30 64 1017.5
20260831085512 21 290 14.5 25.7 0.00 0.33 0.30 66 1017.5
20260831085012 21 213 14.5 25.7 0.00 0.33 0.30 67 1017.4
20260831084511 21 178 8.0 20.9 0.00 0.33 0.30 70 1017.3
20260831084012 21 53 11.3 17.7 0.00 0.33 0.30 70 1017.4
20260831083512 20 126 8.0 17.7 0.00 0.33 0.30 72 1017.3
20260831083011 20 206 9.7 27.4 0.00 0.33 0.30 73 1017.3
20260831082511 20 217 4.8 27.4 0.00 0.33 0.30 75 1017.4
20260831082011 20 217 6.4 22.5 0.00 0.33 0.30 77 1017.3
20260831081511 19 217 9.7 22.5 0.00 0.33 0.30 79 1017.3
20260831081011 19 232 4.8 14.5 0.00 0.33 0.30 80 1017.3
20260831080512 19 199 9.7 19.3 0.00 0.33 0.30 81 1017.2
20260831080011 19 192 8.0 20.9 0.00 0.33 0.30 82 1017.1
20260831075512 19 155 8.0 12.9 0.00 0.33 0.30 84 1017.1
20260831075011 19 201 8.0 12.9 0.00 0.33 0.30 84 1017.1
20260831074511 19 202 8.0 14.5 0.00 0.33 0.30 85 1017.1
20260831074012 19 196 8.0 16.1 0.00 0.33 0.30 85 1017.2
20260831073511 18 164 4.8 8.0 0.00 0.33 0.30 87 1017.2
20260831073013 18 163 4.8 8.0 0.00 0.33 0.30 88 1017.1
20260831072513 18 150 1.6 8.0 0.00 0.33 0.30 87 1017.2
20260831072013 18 151 1.6 12.9 0.00 0.33 0.30 87 1017.2
20260831071513 18 180 8.0 14.5 0.00 0.33 0.30 87 1017.2
20260831071012 18 213 4.8 12.9 0.00 0.33 0.30 87 1017.2
20260831070513 18 172 8.0 17.7 0.00 0.33 0.30 88 1017.2
20260831070011 18 206 4.8 11.3 0.00 0.33 0.30 89 1017.2
20260831065512 18 259 6.4 12.9 0.00 0.41 0.30 89 1017.2
20260831065011 18 161 6.4 11.3 0.00 0.41 0.30 90 1017.2
20260831064511 18 226 4.8 12.9 0.00 0.41 0.30 90 1017.2
20260831064012 18 212 4.8 9.7 0.00 0.41 0.30 90 1017.2
20260831063511 18 164 4.8 9.7 0.00 0.41 0.30 90 1017.1
20260831063011 17 188 4.8 9.7 0.00 0.41 0.30 90 1017.1
20260831062511 17 186 3.2 8.0 0.00 0.41 0.30 90 1017.1
20260831062011 17 208 4.8 9.7 0.00 0.41 0.30 90 1017.1
20260831061511 17 167 4.8 9.7 0.00 0.41 0.30 90 1017.0
20260831061011 17 188 3.2 6.4 0.00 0.41 0.30 90 1017.0
20260831060512 17 197 3.2 8.0 0.00 0.41 0.30 90 1017.0
20260831060011 17 161 4.8 11.3 0.00 0.41 0.30 90 1016.9
20260831055512 17 161 3.2 9.7 0.00 0.51 0.30 90 1016.9
20260831055011 17 229 6.4 11.3 0.00 0.51 0.30 90 1016.8
20260831054513 17 176 4.8 8.0 0.00 0.51 0.30 90 1016.9
20260831054012 17 171 4.8 9.7 0.00 0.51 0.30 90 1016.8
20260831053512 17 186 1.6 8.0 0.00 0.51 0.30 90 1016.8
20260831053012 17 226 4.8 12.9 0.00 0.51 0.30 90 1016.7
20260831052512 17 222 6.4 11.3 0.00 0.51 0.30 90 1016.6
20260831052012 17 176 8.0 12.9 0.00 0.51 0.30 90 1016.5
20260831051512 17 170 6.4 11.3 0.00 0.51 0.30 90 1016.5
20260831051012 17 171 6.4 11.3 0.00 0.51 0.30 90 1016.6
20260831050512 17 158 3.2 8.0 0.00 0.51 0.30 90 1016.6
20260831050011 17 227 3.2 9.7 0.00 0.51 0.30 90 1016.6
20260831045511 17 203 4.8 8.0 0.00 0.51 0.30 90 1016.5
20260831045012 17 157 3.2 6.4 0.00 0.51 0.30 90 1016.4
20260831044511 17 192 4.8 9.7 0.00 0.51 0.30 90 1016.4
20260831044012 17 169 3.2 4.8 0.00 0.51 0.30 90 1016.4
20260831043511 17 198 3.2 4.8 0.00 0.51 0.30 90 1016.3
20260831043011 17 173 4.8 6.4 0.00 0.51 0.30 90 1016.2
20260831042512 17 115 1.6 6.4 0.00 0.51 0.30 90 1016.2
20260831042011 17 175 6.4 8.0 0.00 0.51 0.30 90 1016.2
20260831041511 17 165 3.2 9.7 0.00 0.51 0.30 90 1016.2
20260831041011 17 169 3.2 8.0 0.00 0.51 0.30 90 1016.1
20260831040513 17 143 4.8 8.0 0.00 0.51 0.30 90 1016.0
20260831040013 17 146 4.8 6.4 0.00 0.51 0.30 90 1016.1
20260831035511 17 152 4.8 11.3 0.00 0.51 0.30 90 1016.0
20260831035012 17 201 4.8 11.3 0.00 0.51 0.30 90 1016.0
20260831034511 17 190 3.2 6.4 0.00 0.51 0.30 90 1016.0
20260831034011 17 182 4.8 9.7 0.00 0.51 0.30 90 1016.1
20260831033513 17 173 6.4 9.7 0.00 0.51 0.30 90 1016.0
20260831033012 17 148 6.4 9.7 0.00 0.51 0.30 90 1016.1
20260831032512 17 157 6.4 9.7 0.00 0.51 0.30 89 1016.0
20260831032011 17 205 6.4 12.9 0.00 0.51 0.30 89 1015.9
20260831031512 17 167 6.4 14.5 0.00 0.51 0.30 89 1015.9
20260831030743 17 152 8.0 12.9 0.00 0.51 0.30 89 1015.9
20260831030242 17 192 4.8 12.9 0.00 0.51 0.30 89 1015.8
20260831025742 17 196 9.7 16.1 0.00 0.51 0.30 89 1015.9
20260831025243 17 211 6.4 11.3 0.00 0.51 0.30 89 1015.9
20260831024743 18 157 3.2 9.7 0.00 0.51 0.30 89 1015.9
20260831024242 18 173 4.8 9.7 0.00 0.51 0.30 89 1015.8
20260831023743 18 184 6.4 12.9 0.00 0.51 0.30 89 1015.8
20260831023243 18 144 4.8 12.9 0.00 0.51 0.30 89 1015.8
20260831022743 18 232 8.0 12.9 0.00 0.51 0.30 89 1015.7
20260831022244 18 190 6.4 11.3 0.00 0.51 0.30 89 1015.6
20260831021743 18 196 4.8 9.7 0.00 0.51 0.30 89 1015.6
20260831021243 18 227 4.8 9.7 0.00 0.51 0.30 88 1015.5
20260831020742 18 195 3.2 16.1 0.00 0.51 0.30 88 1015.4
20260831020242 18 178 9.7 19.3 0.00 0.51 0.30 88 1015.4
20260831015743 18 173 11.3 19.3 0.00 0.51 0.30 88 1015.3
20260831015243 18 219 6.4 14.5 0.00 0.51 0.30 88 1015.3
20260831014743 18 173 4.8 11.3 0.03 0.51 0.30 88 1015.2
20260831014020 18 234 8.0 12.9 0.03 0.51 0.30 88 1015.1
20260831013519 18 205 3.2 8.0 0.03 0.51 0.30 89 1015.1
20260831013018 18 209 4.8 11.3 0.05 0.51 0.30 89 1015.0
20260831012519 18 195 3.2 11.3 0.05 0.51 0.30 89 1015.0
20260831012018 18 162 4.8 9.7 0.08 0.51 0.30 89 1015.0
20260831011518 18 223 0.0 4.8 0.10 0.51 0.30 88 1014.9
20260831011018 18 184 1.6 6.4 0.13 0.51 0.30 88 1014.9
20260831010519 18 198 1.6 4.8 0.15 0.51 0.30 88 1014.9
20260831010018 18 238 1.6 4.8 0.15 0.51 0.30 88 1015.0
20260831005519 18 219 1.6 6.4 0.15 0.51 0.30 88 1014.9
20260831005019 18 167 1.6 6.4 0.15 0.51 0.30 88 1014.7
20260831004519 18 163 3.2 6.4 0.15 0.48 0.28 88 1015.0
20260831004019 18 240 0.0 1.6 0.15 0.48 0.28 87 1014.8
20260831003518 18 217 0.0 3.2 0.18 0.48 0.28 88 1014.8
20260831003019 18 117 1.6 4.8 0.15 0.46 0.25 87 1014.5
20260831002520 18 146 3.2 6.4 0.15 0.43 0.23 87 1014.7
20260831002019 18 141 1.6 4.8 0.15 0.43 0.23 87 1014.7
20260831001520 18 170 3.2 6.4 0.13 0.41 0.20 87 1015.1
20260831001018 18 160 4.8 8.0 0.10 0.38 0.18 87 1015.1
20260831000520 18 177 6.4 11.3 0.08 0.36 0.15 87 1015.2
20260831000019 18 182 6.4 8.0 0.08 0.36 0.15 87 1015.2
20260830235518 18 157 6.4 14.5 0.05 0.33 0.15 87 1015.2
20260830235020 18 195 6.4 17.7 0.05 0.33 0.15 86 1015.2
20260830234519 18 229 8.0 16.1 0.05 0.33 0.15 86 1015.4
20260830234019 18 200 6.4 11.3 0.05 0.33 0.13 86 1015.4
20260830233520 18 215 6.4 14.5 0.05 0.30 0.10 86 1015.3
20260830233019 18 218 9.7 14.5 0.05 0.30 0.10 86 1015.0
20260830232519 18 229 3.2 4.8 0.08 0.28 0.08 85 1014.8
20260830232019 18 130 3.2 4.8 0.08 0.28 0.08 85 1014.2
20260830231518 18 131 1.6 4.8 0.08 0.28 0.08 85 1014.0
20260830231018 18 186 0.0 3.2 0.08 0.28 0.08 85 1013.9
20260830230519 18 127 1.6 4.8 0.08 0.28 0.08 84 1013.7
20260830230020 18 140 1.6 4.8 0.08 0.28 0.08 84 1014.0
20260830225521 18 191 1.6 4.8 0.08 0.28 0.08 83 1013.9
20260830225020 19 142 3.2 8.0 0.08 0.28 0.08 83 1014.0
20260830224522 19 109 3.2 8.0 0.08 0.28 0.08 82 1014.2
20260830224021 19 189 6.4 14.5 0.05 0.25 0.05 82 1014.5
20260830223520 19 177 8.0 22.5 0.05 0.25 0.05 82 1014.4
20260830223022 18 206 6.4 16.1 0.05 0.23 0.05 82 1014.4
20260830222521 18 254 11.3 20.9 0.00 0.20 0.00 82 1014.1
20260830222022 17 269 4.8 8.0 0.00 0.20 0.00 83 1013.2
20260830221522 17 286 4.8 6.4 0.00 0.20 0.00 82 1012.8
20260830221022 17 242 0.0 1.6 0.00 0.20 0.00 81 1012.7
20260830220522 17 242 0.0 1.6 0.00 0.20 0.00 81 1012.6
20260830220022 17 242 0.0 1.6 0.00 0.20 0.00 81 1012.6
20260830215521 17 242 0.0 1.6 0.00 0.20 0.20 81 1012.6
20260830215022 17 244 1.6 3.2 0.00 0.20 0.20 81 1012.6
20260830214521 17 94 0.0 0.0 0.00 0.20 0.20 80 1012.5
20260830214021 17 94 1.6 3.2 0.00 0.20 0.20 80 1012.5
20260830213522 17 108 0.0 3.2 0.00 0.20 0.20 80 1012.6
20260830213020 17 136 3.2 3.2 0.00 0.20 0.20 80 1012.7
20260830212520 17 166 1.6 4.8 0.00 0.20 0.20 81 1012.8
20260830212021 17 158 1.6 3.2 0.00 0.20 0.20 81 1012.7
20260830211520 17 155 3.2 6.4 0.00 0.20 0.20 81 1012.7
20260830211021 17 156 4.8 6.4 0.00 0.20 0.20 81 1012.8
20260830210520 17 138 3.2 4.8 0.00 0.20 0.20 81 1012.8
20260830210020 17 106 1.6 1.6 0.00 0.20 0.20 80 1012.9
20260830205521 17 89 0.0 0.0 0.00 0.20 0.20 80 1013.0
20260830205020 17 89 0.0 1.6 0.00 0.20 0.20 80 1013.0
20260830204520 17 89 0.0 1.6 0.00 0.20 0.20 80 1013.0